San Jose, Costa Rica

1:12 PM CST on June 23, 2017 (GMT -0600)
Juan Santamaria International

Weather History for MROC - April, 2014

Change the Weather History Date:

Tuesday, April 8, 2014

  Actual Average Record
Temperature  
Mean Temperature 78 °F -  
Max Temperature 90 °F 82 °F 91 °F (1998)
Min Temperature 66 °F 65 °F 62 °F (2006)
Cooling Degree Days 13    
Growing Degree Days 28 (Base 50)    
Moisture  
Dew Point 59 °F    
Average Humidity 54    
Maximum Humidity 83    
Minimum Humidity 24    
Precipitation  
Precipitation 0.00 in 0.17 in - ()
Sea Level Pressure  
Sea Level Pressure 29.95 in    
Wind  
Wind Speed 7 mph ()    
Max Wind Speed 13 mph    
Max Gust Speed 24 mph    
Visibility 8.3 miles    
Events      
Averages and records for this station are not official NWS values.
T = Trace of Precipitation, MM = Missing Value Source: Averaged Metar Reports

Daily Weather History Graph

Daily Weather History Graph

Search for Another Location

Airport or City:

Trip Planner

Search our weather history database for the weather conditions in past years. The results will help you decide how hot, cold, wet, or windy it might be!

Date:

Astronomy

Apr. 08, 2014 Rise Set
Actual Time 5:30 AM CST 5:47 PM CST
Civil Twilight 5:08 AM CST 6:08 PM CST
Nautical Twilight 4:44 AM CST 6:33 PM CST
Astronomical Twilight 4:19 AM CST 6:58 PM CST
Moon 12:40 PM CST (4/8) 12:39 AM CST (4/8)
Length of Visible Light 12h 59m
Length of Day
12h 17m
Waxing Gibbous, 63% of the Moon is Illuminated
Apr 8
Waxing Gibbous
Apr 15
Full
Apr 22
Last Quarter
Apr 29
New
May 6
First Quarter

Hourly Weather History & Observations

Time (CST) Temp. Heat Index Dew Point Humidity Pressure Visibility Wind Dir Wind Speed Gust Speed Precip Events Conditions
12:00 AM 73 °F - 58 °F 50% 29.85 in 12 mi ENE 3.5 mph - -  
12:00 AM 69.8 °F - 62.6 °F 78% 30.00 in - ENE 2.3 mph - N/A   Clear
1:00 AM 68.0 °F - 60.8 °F 78% 29.98 in - ENE 5.8 mph - N/A   Clear
2:00 AM 68.0 °F - 60.8 °F 78% 29.97 in - NE 8.1 mph - N/A   Clear
3:00 AM 67 °F - 61 °F 74% 29.83 in 12 mi NE 6.9 mph - -  
3:00 AM 66.2 °F - 60.8 °F 83% 29.97 in - NE 6.9 mph - N/A   Clear
4:00 AM 66.2 °F - 60.8 °F 83% 29.99 in - NE 5.8 mph - N/A   Clear
5:00 AM 68.0 °F - 60.8 °F 78% 30.00 in - NE 9.2 mph - N/A   Partly Cloudy
6:00 AM 69 °F - 61 °F 68% 29.87 in 12 mi ENE 11.5 mph - -   Scattered Clouds
6:00 AM 68.0 °F - 60.8 °F 78% 30.00 in 6.2 mi ENE 11.5 mph - N/A   Partly Cloudy
7:00 AM 75.2 °F - 60.8 °F 61% 30.02 in 6.2 mi East 8.1 mph - N/A   Partly Cloudy
8:00 AM 78.8 °F - 62.6 °F 57% 30.03 in 6.2 mi East 11.5 mph - N/A   Scattered Clouds
9:00 AM 82 °F - 61 °F 39% 29.88 in 12 mi East 12.7 mph - -   Scattered Clouds
9:00 AM 82.4 °F 82.9 °F 60.8 °F 48% 30.04 in 6.2 mi East 12.7 mph 24.2 mph N/A   Scattered Clouds
10:00 AM 86.0 °F 86.1 °F 60.8 °F 43% 30.03 in 6.2 mi East 10.4 mph - N/A   Scattered Clouds
11:00 AM 86.0 °F 86.1 °F 60.8 °F 43% 30.03 in 6.2 mi East 12.7 mph - N/A   Mostly Cloudy
12:00 PM 71 °F - 60 °F 59% 29.82 in 12 mi East 10.4 mph - -   Scattered Clouds
12:00 PM 87.8 °F 87.1 °F 59.0 °F 38% 30.00 in 6.2 mi East 10.4 mph - N/A   Mostly Cloudy
1:00 PM 89.6 °F 88.9 °F 59.0 °F 36% 29.97 in 6.2 mi ESE 11.5 mph - N/A   Mostly Cloudy
2:00 PM 87.8 °F 87.1 °F 59.0 °F 38% 29.95 in 6.2 mi ENE 10.4 mph - N/A   Mostly Cloudy
3:00 PM 89 °F - 57 °F 24% 29.76 in 12 mi East 8.1 mph - -   Scattered Clouds
3:00 PM 89.6 °F 88.1 °F 57.2 °F 33% 29.93 in 6.2 mi East 8.1 mph - N/A   Scattered Clouds
4:00 PM 86.0 °F 85.4 °F 59.0 °F 40% 29.94 in 6.2 mi East 10.4 mph - N/A   Scattered Clouds
5:00 PM 82.4 °F 82.9 °F 60.8 °F 48% 29.95 in 6.2 mi East 8.1 mph - N/A   Scattered Clouds
6:00 PM 81 °F - 60 °F 39% 29.82 in 12 mi ESE 8.1 mph - -   Scattered Clouds
6:00 PM 80.6 °F 81.5 °F 60.8 °F 51% 29.97 in 6.2 mi ESE 8.1 mph - N/A   Scattered Clouds
7:00 PM 78.8 °F - 60.8 °F 54% 29.99 in 6.2 mi East 6.9 mph - N/A   Partly Cloudy
8:00 PM 77.0 °F - 59.0 °F 54% 30.00 in - NE 6.9 mph - N/A   Clear
9:00 PM 76 °F - 53 °F 33% 29.86 in 12 mi ENE 8.1 mph - -  
9:00 PM 75.2 °F - 53.6 °F 47% 30.03 in - ENE 8.1 mph - N/A   Clear
10:00 PM 77.0 °F - 53.6 °F 44% 30.04 in - ESE 10.4 mph - N/A   Clear
11:00 PM 73.4 °F - 57.2 °F 57% 30.03 in - ESE 9.2 mph - N/A   Clear